Location: Aubazine
(45.1750°N, 1.6731°E)
Time: 12:32:02
(UTC+00:00)

Daily predictions for brighter satellites

Satellite Brightness Start Highest point End
(mag) Time Altitude Azimuth Time Altitude Azimuth Time Altitude Azimuth
COSMOS 2406 3.5 19:47:18 10° SSW 19:52:59 77° WNW 19:58:43 10° NNE
BREEZE-M DEB (TANK) 3.4 19:50:20 10° SSW 19:53:18 39° SE 20:01:21 10° ENE
Cosmos 2322 Rocket 4.0 19:50:30 10° N 19:54:22 19° NE 19:58:14 10° E
Meteor 2-13 Rocket 4.5 19:48:24 10° S 19:54:30 80° E 20:00:37 10° N
IRS-1A Rocket 4.3 19:50:16 10° SSE 19:55:46 72° ENE 20:01:16 10° N
CZ-4 R/B 4.5 19:54:00 10° WSW 19:56:08 14° W 19:58:17 10° WNW
Cosmos 1689 Rocket 3.1 19:54:16 10° N 19:56:57 47° WNW 19:59:36 10° SSW
BREEZE-M DEB (TANK) 3.4 19:56:31 10° WNW 19:59:21 67° NNE 20:06:58 10° ESE
MOS 1 4.3 19:54:24 10° SSE 20:00:03 80° ENE 20:05:43 10° NNW
Cosmos 1538 Rocket 4.5 19:55:50 10° S 20:00:39 40° ESE 20:05:28 10° NE
Resurs 01 Rocket 2.0 19:59:28 10° SE 20:03:45 49° ENE 20:08:03 10° N
Cosmos 2151 4.0 20:01:50 10° SSE 20:05:25 27° E 20:09:03 10° NNE
Cosmos 44 Rocket 4.0 20:01:10 10° SW 20:06:20 66° NW 20:11:34 10° NNE
ERS-2 2.3 20:02:46 10° NNE 20:06:21 52° ESE 20:09:53 10° S
Cosmos 2098 Rocket 2.9 20:03:49 10° SSE 20:06:41 38° E 20:10:01 10° NNE
Gbstr 26 Del rocket 3.7 20:04:47 10° NW 20:08:19 39° NNE 20:12:01 10° E
USA 186 4.2 20:10:19 10° SW 20:12:40 20° W 20:14:54 10° NW
Ariane Rocket 3.1 20:13:02 10° SSE 20:18:07 80° WSW 20:23:13 10° NNW
SL-16 R/B 3.2 20:18:15 10° NNW 20:23:25 34° NE 20:28:03 12° ESE
Cosmos 1782 4.2 20:24:27 10° NNE 20:27:41 23° ENE 20:30:03 14° ESE
Cosmos 371 Rocket 3.3 20:23:32 10° NNW 20:28:22 80° ENE 20:32:51 12° SSE
ARIANE 5 R/B 3.9 20:26:51 13° ESE 20:30:01 28° ENE 20:33:48 10° N
Cosmos 1271 Rocket 3.6 20:30:38 10° N 20:34:20 35° ENE 20:36:55 17° SE
USA 276 2.8 20:32:54 10° WNW 20:35:58 49° NNE 20:38:32 14° E
SPOT 1/Viking Rocket 3.7 20:31:18 12° SSE 20:36:03 63° ENE 20:41:14 10° N
BREEZE-M DEB (TANK) 2.4 20:34:17 10° WNW 20:37:09 87° NNE 20:43:14 13° ESE
Cosmos 1076 Rocket 3.7 20:33:25 10° SSW 20:37:45 77° W 20:42:09 10° N
Cosmos 1697 Rocket 4.3 20:34:42 10° NW 20:39:36 31° WSW 20:44:30 10° SSW
OBJECT-B 3.8 20:39:20 10° WSW 20:40:42 12° W 20:42:05 10° WNW
Cosmos 1151 Rocket 4.2 20:37:35 10° NNE 20:41:20 27° ENE 20:43:40 17° ESE
ATLAS 2AS CENTAUR R/B 3.9 20:36:15 10° WSW 20:43:59 54° NW 20:51:31 10° NNE
Cosmos 923 Rocket 4.4 20:41:57 10° S 20:47:00 45° ESE 20:52:05 10° NNE
ATLAS 3B R/B 3.0 20:43:31 10° NW 20:50:37 72° WSW 20:56:42 16° SSE
Terra 3.1 20:47:56 17° ESE 20:50:38 27° ENE 20:54:38 10° N
SPOT 5 3.4 20:50:48 20° ESE 20:53:12 36° ENE 20:57:14 10° N
Cosmos 2082 Rocket 3.3 20:49:59 10° SW 20:55:23 47° WNW 21:00:52 10° NNE
USA 267 4.2 20:50:36 10° ENE 20:55:34 23° SE 20:59:02 15° SSE
Cosmos 1092 Rocket 4.0 20:49:26 10° S 20:55:39 74° E 21:01:58 10° NNE
Meteor 2-19 Rocket 4.4 20:49:44 10° S 20:55:46 85° E 21:01:52 10° N
Cosmos 1633 4.2 20:53:51 10° SW 20:57:11 35° WNW 21:00:34 10° N
Cosmos 2278 4.4 20:54:14 10° NW 20:59:41 50° WSW 21:04:37 13° S
BREEZE-M DEB (TANK) 3.1 20:59:09 10° W 21:01:41 37° NNW 21:03:12 12° NE
ERS-1 Rocket 3.3 21:00:35 22° SE 21:03:35 50° ENE 21:08:26 10° N
Cosmos 332 Rocket 3.9 21:00:48 10° NNW 21:05:42 78° WSW 21:08:58 21° SSE
SL-27 R/B 4.3 21:06:23 17° E 21:06:23 17° E 21:08:11 10° NE
Cosmos 2360 Rocket 3.2 21:01:40 10° N 21:06:48 34° NE 21:10:08 19° ESE
Cosmos 158 Rocket 4.2 21:01:45 10° SSW 21:06:53 76° WNW 21:12:12 10° NNE
Cosmos 2026 Rocket 4.0 21:02:18 10° S 21:08:38 75° E 21:14:54 10° NNE
GP-B 3.0 21:08:59 10° N 21:13:27 80° E 21:16:14 23° S
ISS -3.2 21:11:50 10° WNW 21:15:06 46° SW 21:15:56 37° S
Cosmos 2333 Rocket 3.8 21:12:41 10° N 21:17:06 23° NE 21:20:38 13° E
Spot 2 Rocket 3.5 21:14:48 22° SSE 21:18:09 85° WSW 21:23:18 10° NNW
Meteor 1-26 Rocket 4.4 21:13:53 10° NNW 21:19:51 81° W 21:23:54 21° S
Cosmos 1371 Rocket 4.4 21:15:31 10° NNW 21:20:46 52° ENE 21:23:22 28° SE
Cosmos 2112 Rocket 4.1 21:17:49 18° S 21:21:35 58° ESE 21:26:47 10° NNE
Cosmos 1680 Rocket 3.4 21:17:27 13° S 21:22:05 69° ESE 21:27:19 10° NNE
Cosmos 1812 3.2 21:18:23 10° N 21:22:06 44° ENE 21:23:04 36° ESE
Cosmos 220 Rocket 4.2 21:19:57 10° NNW 21:24:14 56° ENE 21:25:50 35° SE
CZ-2C R/B 4.2 21:20:52 10° N 21:25:19 58° WNW 21:29:41 10° SSW
Okean 3 Rocket 3.5 21:24:58 29° S 21:27:13 71° E 21:31:44 10° NNE
Cosmos 1980 Rocket 4.0 21:23:24 10° NW 21:27:50 24° WSW 21:32:16 10° SSW
USA 245 4.4 21:25:06 18° S 21:28:50 51° W 21:33:01 10° NNW
USA 234 4.4 21:24:25 10° E 21:30:21 38° NNE 21:36:18 10° NW
Cosmos 2322 Rocket 2.1 21:33:33 10° NNW 21:39:13 88° WSW 21:41:46 34° SSE
Resurs 01 Rocket 4.0 21:37:31 10° SW 21:40:31 18° W 21:43:32 10° NW
Cosmos 1408 Rocket 3.8 21:40:12 43° SE 21:41:07 51° E 21:45:20 10° NNE
Meteor 2-14 Rocket 4.4 21:44:00 26° S 21:47:42 82° E 21:53:52 10° N
Cosmos 2084 3.1 21:48:52 30° SSW 21:50:47 81° SE 21:54:58 10° NE
Cosmos 1553 Rocket 3.9 21:46:28 10° N 21:52:35 84° W 21:55:36 32° S
CZ-4B DEB 4.2 21:53:29 74° NE 21:53:29 74° NE 21:56:29 10° N
Gbstr 26 Del rocket 2.9 21:51:27 10° WNW 21:55:10 54° SW 21:55:26 52° SSW
Cosmos 2266 Rocket 4.2 21:53:29 36° SE 21:55:40 54° E 22:01:43 10° NNE
Cosmos 1862 3.2 21:57:03 54° SSW 21:57:54 85° W 22:01:54 10° N
Cosmos 2219 Rocket 3.2 21:55:35 10° NNW 22:00:44 36° NE 22:02:58 26° E
Cosmos 1624 Rocket 3.9 21:56:05 10° NNW 22:01:19 82° WSW 22:02:57 45° S
Cosmos 1782 4.4 22:00:30 10° NNW 22:03:59 28° W 22:05:38 21° SW
NOSS 2-1 (E) 3.0 22:05:21 67° NNE 22:05:21 67° NNE 22:08:23 10° NE
Cosmos 2228 Rocket 3.9 22:01:37 10° N 22:05:42 36° ENE 22:06:05 35° E
Cosmos 1515 Rocket 3.5 22:01:28 10° N 22:05:55 88° ENE 22:06:43 60° SSE
ARIANE 5 R/B 4.0 22:04:24 23° SW 22:06:22 32° W 22:10:24 10° NNW
H-2A R/B 3.3 22:02:27 10° NNE 22:06:41 78° ESE 22:07:15 64° SSE
SL-16 R/B 3.0 22:02:17 10° NW 22:07:36 41° WSW 22:09:55 28° SSW
NOSS 3-1 (C) 4.3 22:02:24 10° NW 22:09:47 66° NE 22:14:30 29° ESE
COSMOS 2455 3.2 22:09:10 41° SE 22:09:55 43° ESE 22:15:34 10° NE
Cosmos 2333 4.4 22:04:56 10° NNW 22:10:28 58° ENE 22:12:13 40° ESE
Cosmos 2237 4.4 22:06:14 10° NNW 22:11:54 66° WSW 22:13:45 42° S
USA 276 4.0 22:09:12 10° WNW 22:10:46 23° W 22:10:46 23° W
Cosmos 1420 Rocket 4.0 22:06:58 10° NNW 22:12:20 83° ENE 22:13:43 51° SSE
Cosmos 1655 Rocket 4.0 22:12:44 37° S 22:15:30 85° E 22:21:56 10° N
COSMOS 2428 3.6 22:10:11 10° NNW 22:15:30 39° NE 22:17:35 29° E
Meteor 2-6 Rocket 4.5 22:11:38 10° NNW 22:16:56 58° W 22:18:53 37° SSW
Spot 4 4.5 22:21:45 39° E 22:22:31 43° ENE 22:27:04 10° N
S3M 4.1 22:16:30 10° NNW 22:22:53 75° W 22:25:25 39° S
USA 229 DEB 4.4 22:16:49 10° NNW 22:23:55 53° NE 22:28:16 26° ESE
USA 229 4.4 22:16:55 10° NNW 22:24:01 52° NE 22:28:23 25° ESE
ATLAS 5 CENTAUR R/B 3.4 22:22:18 10° NNW 22:27:19 37° NE 22:30:39 22° E
Cosmos 1174 4.5 22:24:29 10° NNW 22:26:29 38° NNW 22:26:29 38° NNW
Terra 2.9 22:26:50 30° SW 22:28:14 37° W 22:32:39 10° NNW
COSMOS 2487 4.1 22:31:49 26° NE 22:31:49 26° NE 22:33:30 10° NNE
SPOT 5 4.4 22:30:02 19° WSW 22:31:26 22° W 22:34:52 10° NW
Cosmos 1452 Rocket 3.6 22:26:37 10° NNW 22:31:51 64° ENE 22:32:49 53° ESE
ALOS 2 3.8 22:33:57 30° ENE 22:34:15 31° ENE 22:38:06 10° N
USA 267 3.1 22:32:39 10° NE 22:39:14 80° SE 22:45:47 10° SW
SL-27 R/B 4.0 22:39:50 29° W 22:40:31 32° WNW 22:43:48 10° N
Cosmos 2056 Rocket 4.4 22:36:23 10° NW 22:41:18 38° WSW 22:42:28 33° SW
Meteor 1-27 Rocket 3.7 22:37:17 10° NNW 22:42:56 77° W 22:44:14 54° SSW
NOSS 3-1 (A) 4.3 22:37:05 10° NW 22:44:30 67° NE 22:48:48 32° ESE
Cosmos 1805 Rocket 3.5 22:49:13 82° ENE 22:49:13 82° ENE 22:53:33 10° N
Cosmos 2360 Rocket 2.9 22:45:37 10° NW 22:50:51 41° WSW 22:51:53 37° SW
IRIDIUM 104 4.3 22:46:16 10° N 22:51:30 75° W 22:52:18 62° SSW
Meteor 1-20 Rocket 4.1 22:54:51 64° SSE 22:55:34 72° E 23:01:15 10° NNE
Cosmos 1110 Rocket 4.3 22:52:38 10° NNW 22:57:54 56° ENE 22:58:40 51° E
Cosmos 1500 Rocket 4.4 22:59:40 39° W 23:00:19 41° WNW 23:04:32 10° N
Cosmos 2333 Rocket 2.1 22:56:18 10° NNW 23:01:55 69° WSW 23:02:38 62° SSW
Cosmos 1331 Rocket 4.2 22:58:09 10° NNW 23:03:20 56° ENE 23:03:58 52° E
Meteor 1-22 4.5 23:03:00 68° SSW 23:03:45 87° W 23:09:18 10° N
Cosmos 1244 Rocket 4.4 23:03:47 58° SE 23:04:50 69° E 23:11:00 10° NNE
Cosmos 972 Rocket 4.3 23:07:27 48° WSW 23:08:41 62° WNW 23:13:42 10° NNE
COBE Rocket 4.0 23:09:07 56° WSW 23:09:10 56° W 23:13:47 10° NNW
Cosmos 2322 3.8 23:06:30 10° NNW 23:12:08 60° WSW 23:12:44 57° SW
USA 234 3.3 23:10:02 37° ESE 23:12:52 79° NE 23:19:27 10° NW
NOSS 0 Rocket 4.1 23:08:13 10° NNW 23:14:26 64° ENE 23:16:01 48° ESE
Cosmos 2297 Rocket 3.3 23:17:11 30° E 23:17:11 30° E 23:21:35 10° NE
Cosmos 468 4.5 23:16:08 67° WSW 23:16:45 76° WNW 23:22:00 10° NNE
Lacrosse 5 3.5 23:21:59 22° E 23:21:59 22° E 23:24:13 10° ENE
Cosmos 2322 Rocket 4.3 23:19:54 10° WNW 23:22:22 13° W 23:23:35 12° WSW
Cosmos 2237 Rocket 2.9 23:17:06 10° NNW 23:22:36 47° ENE 23:24:02 39° E
Cosmos 2084 Rocket 4.5 23:19:49 10° NNW 23:23:46 39° NE 23:24:08 38° ENE
Cosmos 1500 4.2 23:26:57 43° NNE 23:26:57 43° NNE 23:29:39 10° NNE
Meteor 1-18 Rocket 4.1 23:20:20 10° N 23:26:14 79° E 23:26:57 68° SE
Cosmos 1470 Rocket 4.5 23:29:03 39° ENE 23:29:03 39° ENE 23:32:20 10° NNE
Cosmos 2227 Rocket 3.4 23:28:53 28° E 23:28:53 28° E 23:33:11 10° NE
Sich 1 3.7 23:28:46 47° WNW 23:28:46 47° WNW 23:32:53 10° N
Meteor 1-25 Rocket 4.4 23:30:16 54° WSW 23:31:13 63° WNW 23:36:46 10° N
Cosmos 2285 Rocket 4.3 23:25:34 10° NNW 23:31:39 52° WSW 23:32:33 49° SW
Cosmos 1633 Rocket 3.3 23:33:06 66° N 23:33:06 66° N 23:36:53 10° N
Okean 1 4.1 23:28:39 10° NNW 23:31:46 51° NNW 23:31:46 51° NNW
Cosmos 494 Rocket 4.0 23:33:16 64° W 23:33:44 68° WNW 23:38:51 10° NNE
Cosmos 1666 Rocket 3.9 23:37:07 64° NW 23:37:07 64° NW 23:41:08 10° N
Cosmos 2219 Rocket 2.9 23:39:34 10° NW 23:44:39 38° WSW 23:44:39 38° WSW
SL-08 R/B 4.4 23:45:17 63° SSW 23:46:21 81° W 23:52:33 10° N
Meteor 1-19 Rocket 4.4 23:43:42 10° NNW 23:49:12 57° W 23:49:32 56° WSW
SL-16 R/B 3.7 23:44:47 10° N 23:49:45 30° NE 23:52:42 19° E
Cosmos 1269 Rocket 4.1 23:50:05 62° E 23:50:05 62° E 23:55:07 10° NNE
PSLV R/B 4.3 23:47:59 10° NNE 23:52:12 49° ENE 23:52:12 49° ENE
Resurs 1-4 Rocket 4.5 23:53:23 10° ENE 23:54:17 10° E 23:55:11 10° E
